Overview Statistics Trail Chart Weather Telemetry Raw packets
 

This is the latest recevied weather packets stored in our database for station/object Ummendorf. If no packets are shown the sender has not sent any weather packets the latest 10 day(s).

<< 15 16 17 18 19 >>
Time Temp. Humidity Pressure Rain* Wind** Luminosity Snow
1787805129 16.11° C 71% 1013.8 hPa 0 mm - - -
1787803330 16.11° C 70% 1013.9 hPa 0 mm - - -
1787801529 16.11° C 70% 1013.9 hPa 0 mm - - -
1787799730 16.11° C 69% 1013.9 hPa 0 mm - - -
1787797929 16.11° C 68% 1014.3 hPa 0 mm - - -
1787796130 16.67° C 67% 1014.2 hPa 0 mm - - -
1787794330 16.67° C 66% 1014.2 hPa 0 mm - - -
1787792530 16.67° C 66% 1014.3 hPa 0 mm - - -
1787790731 17.22° C 64% 1014.4 hPa 0 mm - - -
1787788931 17.78° C 64% 1014.5 hPa 0 mm - - -
1787787131 18.33° C 63% 1014.7 hPa 0 mm - - -
1787785331 18.89° C 63% 1014.7 hPa 0 mm - - -
1787783531 18.89° C 62% 1014.7 hPa 0 mm - - -
1787781731 19.44° C 62% 1014.9 hPa 0 mm - - -
1787779931 20° C 61% 1014.9 hPa 0 mm - - -
1787778131 20.56° C 59% 1015 hPa 0 mm - - -
1787776332 20.56° C 59% 1015 hPa 0 mm - - -
1787774532 21.11° C 59% 1015.4 hPa 0 mm - - -
1787772730 21.67° C 58% 1015.3 hPa 0 mm - - -
1787770931 22.78° C 56% 1014.9 hPa 0 mm - - -
1787769131 23.89° C 54% 1014.7 hPa 0 mm - - -
1787767330 25° C 50% 1014.7 hPa 0 mm - - -
1787765530 26.11° C 47% 1014.7 hPa 0 mm - - -
1787763731 26.67° C 42% 1014.7 hPa 0 mm - - -
1787761931 27.78° C 41% 1014.8 hPa 0 mm - - -

* Rain since midnight (hover to see other rain measurements)
** Current wind speed in m/s (hover to see current wind gust speed)